1288224028055,1.08814
1288224088055,1.11067
1288224148055,1.09738
1288224208055,1.10582
1288224268055,1.09617
1288224328055,1.09203
1288224388055,1.10965
1288224448055,1.10700
1288224508055,1.09711
1288224568055,1.09911
1288224628055,1.10087
1288224688055,1.09694
1288224748055,1.09980
1288224808055,1.10418
1288224868055,1.09316
1288224928055,1.10017
1288224988055,1.10695
1288225048055,1.10766
1288225108055,1.09770
1288225168055,1.09555
1288225228055,1.10613
1288225288055,1.10057
1288225348055,1.10928
1288225408055,1.10974
1288225468055,1.09965
1288225528055,1.10597
1288225588055,1.09849
1288225648055,1.10349
1288225708055,1.11175
1288225768055,1.10307
1288225828055,1.10532
1288225888055,1.10269
1288225948055,1.10471
1288226008055,1.09784
1288226068055,1.10999
1288226128055,1.10850
1288226188055,1.10496
1288226248055,1.09917
1288226308055,1.10080
1288226368055,1.10036
1288226428055,1.10912
1288226488055,1.09892
1288226548055,1.10801
1288226608055,1.10979
1288226668055,1.10089
1288226728055,1.11085
1288226788055,1.10387
1288226848055,1.11319
1288226908055,1.10157
1288226968055,1.10122
1288227028055,1.10791
1288227088055,1.10220
1288227148055,1.10013
1288227208055,1.11346
1288227268055,1.11604
1288227328055,1.10380
1288227388055,1.10931
1288227448055,1.10140
1288227508055,1.10132
1288227568055,1.10039
1288227628066,1.10742
1288227688066,1.10485
1288227748066,1.09909
1288227808066,1.10867
1288227868066,1.10155
1288227928066,1.10126
1288227988066,1.11172
1288228048066,1.07678
1288228108066,1.10330
1288228168066,1.12555
1288228228066,1.11443
1288228288066,1.11908
1288228348066,1.10399
1288228408066,1.09654
1288228468066,1.09642
1288228528066,1.11023
1288228588066,1.09849
1288228648066,1.10876
1288228708066,1.10569
1288228768066,1.10276
1288228828066,1.09337
1288228888066,1.10885
1288228948066,1.10252
1288229008066,1.12961
1288229068066,1.10580
1288229128066,1.10871
1288229188066,1.10495
1288229248066,1.10609
1288229308066,1.10404
1288229368066,1.10590
1288229428066,1.10922
1288229488066,1.10915
1288229548066,1.10172
1288229608066,1.10638
1288229668066,1.10373
1288229728066,1.10396
1288229788066,1.10268
1288229848066,1.11282
1288229908066,1.10809
1288229968066,1.11371
1288230028066,1.10697
1288230088066,1.11015
1288230148066,1.11013
1288230208066,1.11031
1288230268066,1.10876
1288230328066,1.10542
1288230388066,1.10209
1288230448066,1.11281
1288230508066,1.12376
1288230568066,1.10549
1288230628066,1.10387
1288230688066,1.10701
1288230748066,1.11922
1288230808066,1.10754
1288230868066,1.11346
1288230928066,1.12089
1288230988066,1.10674
1288231048066,1.11442
1288231108066,1.10816
1288231168066,1.10128
1288231228076,1.12161
1288231288076,1.12287
1288231348076,1.10626
1288231408076,1.11068
1288231468076,1.11535
1288231528076,1.10714
1288231588076,1.11009
1288231648076,1.11382
1288231708076,1.11029
1288231768076,1.11164
1288231828076,1.11098
1288231888076,1.12272
1288231948076,1.10990
1288232008076,1.12082
1288232068076,1.11921
1288232128076,1.10100
1288232188076,1.11464
1288232248076,1.11802
1288232308076,1.11518
1288232368076,1.11680
1288232428076,1.11793
1288232488076,1.12367
1288232548076,1.12421
1288232608076,1.13213
1288232668076,1.12526
1288232728076,1.11912
1288232788076,1.11687
1288232848076,1.12524
1288232908076,1.11997
1288232968076,1.11832
1288233028076,1.12701
1288233088076,1.12378
1288233148076,1.13299
1288233208076,1.11808
1288233268076,1.12782
1288233328076,1.12173
1288233388076,1.12365
1288233448076,1.13157
1288233508076,1.13349
1288233568076,1.13669
1288233628076,1.12879
1288233688076,1.12265
1288233748076,1.13350
1288233808076,1.13315
1288233868076,1.13106
1288233928076,1.12623
1288233988076,1.12518
1288234048076,1.13433
1288234108076,1.12123
1288234168076,1.13429
1288234228076,1.13084
1288234288076,1.12567
1288234348076,1.13007
1288234408076,1.12919
1288234468076,1.13502
1288234528076,1.13118
1288234588076,1.13439
1288234648076,1.12288
1288234708076,1.13605
1288234768076,1.13763
1288234828086,1.12872
1288234888086,1.13870
1288234948086,1.13869
1288235008086,1.12861
1288235068086,1.14056
1288235128086,1.13265
1288235188086,1.13696
1288235248086,1.14269
1288235308086,1.14488
1288235368086,1.14764
1288235428086,1.13773
1288235488086,1.12385
1288235548086,1.13553
1288235608086,1.13381
1288235668086,1.14063
1288235728086,1.13202
1288235788086,1.13327
1288235848086,1.13893
1288235908086,1.12993
1288235968086,1.14844
1288236028086,1.13555
1288236088086,1.14410
1288236148086,1.13092
1288236208086,1.14683
1288236268086,1.14220
1288236328086,1.14116
1288236388086,1.14240
1288236448086,1.14620
1288236508086,1.13502
1288236568086,1.13838
1288236628086,1.14835
1288236688086,1.14057
1288236748086,1.13697
1288236808086,1.13749
1288236868086,1.14283
1288236928086,1.14775
1288236988086,1.15512
1288237048086,1.15638
1288237108086,1.13518
1288237168086,1.14860
1288237228086,1.15054
1288237288086,1.13944
1288237348086,1.14938
1288237408086,1.14688
1288237468086,1.15092
1288237528086,1.14657
1288237588086,1.14640
1288237648086,1.13474
1288237708086,1.15290
1288237768086,1.15205
1288237828086,1.14941
1288237888086,1.14123
1288237948086,1.15653
1288238008086,1.15877
1288238068086,1.14860
1288238128086,1.15084
1288238188086,1.13622
1288238248086,1.14762
1288238308086,1.14096
1288238368086,1.14502
1288238428096,1.15309
1288238488096,1.15044
1288238548096,1.14999
1288238608096,1.14531
1288238668096,1.15173
1288238728096,1.14708
1288238788096,1.14355
1288238848096,1.15302
1288238908096,1.14993
1288238968096,1.15207
1288239028096,1.14787
1288239088096,1.14015
1288239148096,1.14881
1288239208096,1.14870
1288239268096,1.14859
1288239328096,1.13610
1288239388096,1.14818
1288239448096,1.14746
1288239508096,1.14743
1288239568096,1.14483
1288239628096,1.15041
1288239688096,1.14574
1288239748096,1.14952
1288239808096,1.15277
1288239868096,1.14254
1288239928096,1.14544
1288239988096,1.14978
1288240048096,1.14751
1288240108096,1.15147
1288240168096,1.15164
1288240228096,1.15648
1288240288096,1.16093
1288240348096,1.15069
1288240408096,1.14948
1288240468096,1.15418
1288240528096,1.29243
1288240588096,1.15525
1288240648096,1.14897
1288240708096,1.15099
1288240768096,1.15215
1288240828096,1.15971
1288240888096,1.15691
1288240948096,1.15558
1288241008096,1.15831
1288241068096,1.15232
1288241128096,1.15620
1288241188096,1.14628
1288241248096,1.15434
1288241308096,1.15035
1288241368096,1.14981
1288241428096,1.14794
1288241488096,1.15621
1288241548096,1.15489
1288241608096,1.15241
1288241668096,1.16132
1288241728096,1.15813
1288241788096,1.14911
1288241848096,1.15655
1288241908096,1.15506
1288241968096,1.14730
1288242028107,1.15646
1288242088107,1.14765
1288242148107,1.15589
1288242208107,1.14390
1288242268107,1.14569
1288242328107,1.15270
1288242388107,1.15966
1288242448107,1.15108
1288242508107,1.15909
1288242568107,1.15837
1288242628107,1.15686
1288242688107,1.16076
1288242748107,1.15264
1288242808107,1.16048
1288242868107,1.15556
1288242928107,1.15487
1288242988107,1.15394
1288243048107,1.15876
1288243108107,1.14852
1288243168107,1.15760
1288243228107,1.16393
1288243288107,1.14893
1288243348107,1.15260
1288243408107,1.15365
1288243468107,1.15690
1288243528107,1.15552
1288243588107,1.15538
1288243648107,1.15318
1288243708107,1.16751
1288243768107,1.14782
1288243828107,1.15209
1288243888107,1.16051
1288243948107,1.15678
1288244008107,1.15004
1288244068107,1.14500
1288244128107,1.16933
1288244188107,1.16299
1288244248107,1.15083
1288244308107,1.15745
1288244368107,1.15226
1288244428107,1.16107
1288244488107,1.15192
1288244548107,1.16270
1288244608107,1.14793
1288244668107,1.15907
1288244728107,1.14296
1288244788107,1.14959
1288244848107,1.16047
1288244908107,1.15967
1288244968107,1.15220
1288245028107,1.15090
1288245088107,1.16088
1288245148107,1.16577
1288245208107,1.15894
1288245268107,1.14249
1288245328107,1.14296
1288245388107,1.15534
1288245448107,1.16123
1288245508107,1.15287
1288245568107,1.15429
1288245628117,1.15147
1288245688117,1.14759
1288245748117,1.16265
1288245808117,1.16760
1288245868117,1.15286
1288245928117,1.14732
1288245988117,1.14697
1288246048117,1.15329
1288246108117,1.15828
1288246168117,1.15160
1288246228117,1.15583
1288246288117,1.15022
1288246348117,1.14509
1288246408117,1.16457
1288246468117,1.15414
1288246528117,1.15064
1288246588117,1.15679
1288246648117,1.14344
1288246708117,1.15491
1288246768117,1.14756
1288246828117,1.15546
1288246888117,1.16116
1288246948117,1.15424
1288247008117,1.15086
1288247068117,1.15762
1288247128117,1.15599
1288247188117,1.15938
1288247248117,1.16130
1288247308117,1.16983
1288247368117,1.15620
1288247428117,1.15020
1288247488117,1.14739
1288247548117,1.14921
1288247608117,1.15701
1288247668117,1.14599
1288247728117,1.14591
1288247788117,1.16359
1288247848117,1.15425
1288247908117,1.14997
1288247968117,1.14681
1288248028117,1.15013
1288248088117,1.14380
1288248148117,1.17588
1288248208117,1.14417
1288248268117,1.14186
1288248328117,1.15145
1288248388117,1.15122
1288248448117,1.15126
1288248508117,1.15482
1288248568117,1.14931
1288248628117,1.15610
1288248688117,1.14706
1288248748117,1.14330
1288248808117,1.14844
1288248868117,1.14265
1288248928117,1.14544
1288248988117,1.14771
1288249048117,1.14785
1288249108117,1.14139
1288249168117,1.15651
1288249228127,1.15531
1288249288127,1.15145
1288249348127,1.14534
1288249408127,1.14420
1288249468127,1.14760
1288249528127,1.14870
1288249588127,1.14576
1288249648127,1.15326
1288249708127,1.15343
1288249768127,1.14659
1288249828127,1.15200
1288249888127,1.14549
1288249948127,1.14459
1288250008127,1.14788
1288250068127,1.15224
1288250128127,1.14673
1288250188127,1.14653
1288250248127,1.14827
1288250308127,1.14443
1288250368127,1.14218
1288250428127,1.14312
1288250488127,1.15517
1288250548127,1.14449
1288250608127,1.14588
1288250668127,1.14384
1288250728127,1.15283
1288250788127,1.14178
1288250848127,1.14194
1288250908127,1.14367
1288250968127,1.17312
1288251028127,1.14408
1288251088127,1.14094
1288251148127,1.14329
1288251208127,1.15090
1288251268127,1.14066
1288251328127,1.13613
1288251388127,1.13014
1288251448127,1.14575
1288251508127,1.15356
1288251568127,1.14911
1288251628127,1.15188
1288251688127,1.15084
1288251748127,1.14325
1288251808127,1.13335
1288251868127,1.13272
1288251928127,1.13844
1288251988127,1.14259
1288252048127,1.14247
1288252108127,1.14481
1288252168127,1.14827
1288252228127,1.14581
1288252288127,1.16341
1288252348127,1.14787
1288252408127,1.15372
1288252468127,1.14269
1288252528127,1.14062
1288252588127,1.14488
1288252648127,1.14715
1288252708127,1.14851
1288252768127,1.14342
1288252828138,1.15344
1288252888138,1.13999
1288252948138,1.15754
1288253008138,1.15081
1288253068138,1.15125
1288253128138,1.15385
1288253188138,1.13757
1288253248138,1.14461
1288253308138,1.15957
1288253368138,1.14770
1288253428138,1.14129
1288253488138,1.13866
1288253548138,1.15300
1288253608138,1.16193
1288253668138,1.14019
1288253728138,1.14679
1288253788138,1.14662
1288253848138,1.13986
1288253908138,1.14707
1288253968138,1.15719
1288254028138,1.14734
1288254088138,1.13502
1288254148138,1.15737
1288254208138,1.13716
1288254268138,1.14717
1288254328138,1.14782
1288254388138,1.15440
1288254448138,1.15238
1288254508138,1.14243
1288254568138,1.13663
1288254628138,1.14479
1288254688138,1.13445
1288254748138,1.14546
1288254808138,1.13625
1288254868138,1.14395
1288254928138,1.12658
1288254988138,1.14071
1288255048138,1.14032
1288255108138,1.13443
1288255168138,1.14578
1288255228138,1.15789
1288255288138,1.14236
1288255348138,1.15098
1288255408138,1.13635
1288255468138,1.14466
1288255528138,1.14866
1288255588138,1.13604
1288255648138,1.14563
1288255708138,1.14831
1288255768138,1.15043
1288255828138,1.14657
1288255888138,1.14602
1288255948138,1.13827
1288256008138,1.13944
1288256068138,1.14693
1288256128138,1.14126
1288256188138,1.14183
1288256248138,1.14674
1288256308138,1.15781
1288256368138,1.14833
1288256428148,1.14348
1288256488148,1.13419
1288256548148,1.13248
1288256608148,1.15932
1288256668148,1.14047
1288256728148,1.13742
1288256788148,1.14144
1288256848148,1.14040
1288256908148,1.14901
1288256968148,1.14882
1288257028148,1.14564
1288257088148,1.15052
1288257148148,1.13495
1288257208148,1.14978
1288257268148,1.14721
1288257328148,1.13733
1288257388148,1.14004
1288257448148,1.12982
1288257508148,1.14115
1288257568148,1.13935
1288257628148,1.14689
1288257688148,1.14606
1288257748148,1.15107
1288257808148,1.14283
1288257868148,1.14510
1288257928148,1.14471
1288257988148,1.13170
1288258048148,1.14550
1288258108148,1.13306
1288258168148,1.13986
1288258228148,1.14207
1288258288148,1.14000
1288258348148,1.13472
1288258408148,1.13713
1288258468148,1.14368
1288258528148,1.14635
1288258588148,1.13683
1288258648148,1.15176
1288258708148,1.14164
1288258768148,1.14766
1288258828148,1.13602
1288258888148,1.13508
1288258948148,1.13327
1288259008148,1.14076
1288259068148,1.13606
1288259128148,1.13517
1288259188148,1.14207
1288259248148,1.15084
1288259308148,1.13507
1288259368148,1.13895
1288259428148,1.13252
1288259488148,1.14791
1288259548148,1.14512
1288259608148,1.14255
1288259668148,1.14063
1288259728148,1.14342
1288259788148,1.14149
1288259848148,1.14522
1288259908148,1.14021
1288259968148,1.14294
1288260028159,1.14932
1288260088159,1.14920
1288260148159,1.14891
1288260208159,1.15430
1288260268159,1.14488
1288260328159,1.15089
1288260388159,1.13351
1288260448159,1.14906
1288260508159,1.14855
1288260568159,1.14697
1288260628159,1.14788
1288260688159,1.14429
1288260748159,1.14876
1288260808159,1.14303
1288260868159,1.14945
1288260928159,1.13879
1288260988159,1.14346
1288261048159,1.15415
1288261108159,1.14818
1288261168159,1.15054
1288261228159,1.15885
1288261288159,1.17283
1288261348159,1.13993
1288261408159,1.14950
1288261468159,1.15686
1288261528159,1.14420
1288261588159,1.15610
1288261648159,1.15865
1288261708159,1.15736
1288261768159,1.15587
1288261828159,1.15674
1288261888159,1.15769
1288261948159,1.15987
1288262008159,1.14739
1288262068159,1.15170
1288262128159,1.15227
1288262188159,1.16396
1288262248159,1.14925
1288262308159,1.15182
1288262368159,1.14794
1288262428159,1.14603
1288262488159,1.15335
1288262548159,1.15895
1288262608159,1.15304
1288262668159,1.15320
1288262728159,1.15518
1288262788159,1.14424
1288262848159,1.16058
1288262908159,1.14680
1288262968159,1.14473
1288263028159,1.15213
1288263088159,1.14279
1288263148159,1.15873
1288263208159,1.16087
1288263268159,1.14596
1288263328159,1.16029
1288263388159,1.14816
1288263448159,1.15345
1288263508159,1.15316
1288263568159,1.15628
1288263628170,1.15613
1288263688170,1.14851
1288263748170,1.15043
1288263808170,1.15614
1288263868170,1.17059
1288263928170,1.16072
1288263988170,1.15978
1288264048170,1.15270
1288264108170,1.14920
1288264168170,1.15211
1288264228170,1.15031
1288264288170,1.15359
1288264348170,1.15467
1288264408170,1.15479
1288264468170,1.14947
1288264528170,1.15566
1288264588170,1.16367
1288264648170,1.15907
1288264708170,1.16012
1288264768170,1.15744
1288264828170,1.17862
1288264888170,1.16218
1288264948170,1.16031
1288265008170,1.16145
1288265068170,1.15628
1288265128170,1.15600
1288265188170,1.16748
1288265248170,1.16611
1288265308170,1.16601
1288265368170,1.15916
1288265428170,1.16491
1288265488170,1.15983
1288265548170,1.15663
1288265608170,1.15578
1288265668170,1.16528
1288265728170,1.15683
1288265788170,1.16415
1288265848170,1.17424
1288265908170,1.16579
1288265968170,1.16437
1288266028170,1.16711
1288266088170,1.16630
1288266148170,1.16223
1288266208170,1.16802
1288266268170,1.17554
1288266328170,1.15586
1288266388170,1.15395
1288266448170,1.16481
1288266508170,1.16429
1288266568170,1.17053
1288266628170,1.15944
1288266688170,1.16810
1288266748170,1.16086
1288266808170,1.17298
1288266868170,1.16073
1288266928170,1.16758
1288266988170,1.16378
1288267048170,1.16564
1288267108170,1.16091
1288267168170,1.17480
1288267228182,1.16123
1288267288182,1.16858
1288267348182,1.15532
1288267408182,1.16989
1288267468182,1.18126
1288267528182,1.18400
1288267588182,1.15973
1288267648182,1.15458
1288267708182,1.16243
1288267768182,1.16488
1288267828182,1.17809
1288267888182,1.16434
1288267948182,1.16123
1288268008182,1.16366
1288268068182,1.17051
1288268128182,1.16084
1288268188182,1.15771
1288268248182,1.16968
1288268308182,1.16118
1288268368182,1.17074
1288268428182,1.16732
1288268488182,1.15883
1288268548182,1.16358
1288268608182,1.16247
1288268668182,1.17011
1288268728182,1.17019
1288268788182,1.17414
1288268848182,1.18431
1288268908182,1.16811
1288268968182,1.17211
1288269028182,1.17161
1288269088182,1.17418
1288269148182,1.17072
1288269208182,1.17832
1288269268182,1.18139
1288269328182,1.18100
1288269388182,1.18118
1288269448182,1.17671
1288269508182,1.17095
1288269568182,1.16848
1288269628182,1.16816
1288269688182,1.17431
1288269748182,1.16728
1288269808182,1.17510
1288269868182,1.17157
1288269928182,1.17145
1288269988182,1.17476
1288270048182,1.17493
1288270108182,1.17441
1288270168182,1.16754
1288270228182,1.17602
1288270288182,1.16979
1288270348182,1.16606
1288270408182,1.17298
1288270468182,1.17557
1288270528182,1.17406
1288270588182,1.17189
1288270648182,1.17346
1288270708182,1.17530
1288270768182,1.17111
1288270828193,1.17451
1288270888193,1.16816
1288270948193,1.16727
1288271008193,1.17654
1288271068193,1.18125
1288271128193,1.17426
1288271188193,1.17112
1288271248193,1.17415
1288271308193,1.17727
1288271368193,1.17824
1288271428193,1.18005
1288271488193,1.17859
1288271548193,1.17853
1288271608193,1.17777
1288271668193,1.17496
1288271728193,1.17773
1288271788193,1.17446
1288271848193,1.16662
1288271908193,1.16096
1288271968193,1.18235
1288272028193,1.17665
1288272088193,1.17784
1288272148193,1.16246
1288272208193,1.17377
1288272268193,1.17412
1288272328193,1.17141
1288272388193,1.22733
1288272448193,1.18133
1288272508193,1.17242
1288272568193,1.17711
1288272628193,1.18356
1288272688193,1.17010
1288272748193,1.18039
1288272808193,1.19229
1288272868193,1.17956
1288272928193,1.19441
1288272988193,1.19188
1288273048193,1.18349
1288273108193,1.17695
1288273168193,1.19382
1288273228193,1.18188
1288273288193,1.18484
1288273348193,1.17798
1288273408193,1.18774
1288273468193,1.17829
1288273528193,1.17891
1288273588193,1.17232
1288273648193,1.18144
1288273708193,1.18452
1288273768193,1.16817
1288273828193,1.17521
1288273888193,1.17429
1288273948193,1.18517
1288274008193,1.18020
1288274068193,1.17546
1288274128193,1.19102
1288274188193,1.18392
1288274248193,1.18757
1288274308193,1.18489
1288274368193,1.17852
1288274428205,1.19498
1288274488205,1.18432
1288274548205,1.18748
1288274608205,1.19039
1288274668205,1.17651
1288274728205,1.20473
1288274788205,1.18752
1288274848205,1.18218
1288274908205,1.18894
1288274968205,1.18956
1288275028205,1.19206
1288275088205,1.19629
1288275148205,1.19985
1288275208205,1.19092
1288275268205,1.18065
1288275328205,1.18894
1288275388205,1.19756
1288275448205,1.19771
1288275508205,1.19721
1288275568205,1.18328
1288275628205,1.18397
1288275688205,1.18720
1288275748205,1.19021
1288275808205,1.18548
1288275868205,1.19633
1288275928205,1.19067
1288275988205,1.20157
1288276048205,1.21026
1288276108205,1.19408
1288276168205,1.19691
1288276228205,1.19098
1288276288205,1.18399
1288276348205,1.18734
1288276408205,1.18273
1288276468205,1.18475
1288276528205,1.18906
1288276588205,1.23844
1288276648205,1.18931
1288276708205,1.19060
1288276768205,1.20053
1288276828205,1.19424
1288276888205,1.20242
1288276948205,1.18612
1288277008205,1.19806
1288277068205,1.20158
1288277128205,1.17564
1288277188205,1.18534
1288277248205,1.18738
1288277308205,1.19035
1288277368205,1.20310
1288277428205,1.20432
1288277488205,1.19036
1288277548205,1.19784
1288277608205,1.19563
1288277668205,1.19440
1288277728205,1.19683
1288277788205,1.19284
1288277848205,1.19836
1288277908205,1.20128
1288277968205,1.20093
1288278028217,1.20881
1288278088217,1.19476
1288278148217,1.20062
1288278208217,1.19615
1288278268217,1.19654
1288278328217,1.19866
1288278388217,1.20483
1288278448217,1.19472
1288278508217,1.20037
1288278568217,1.19756
1288278628217,1.20066
1288278688217,1.20066
1288278748217,1.20336
1288278808217,1.19260
1288278868217,1.19590
1288278928217,1.19778
1288278988217,1.19022
1288279048217,1.19258
1288279108217,1.19436
1288279168217,1.19840
1288279228217,1.19895
1288279288217,1.20234
1288279348217,1.20021
1288279408217,1.18985
1288279468217,1.20456
1288279528217,1.20278
1288279588217,1.19882
1288279648217,1.20190
1288279708217,1.18797
1288279768217,1.19627
1288279828217,1.19842
1288279888217,1.20134
1288279948217,1.19899
1288280008217,1.18671
1288280068217,1.19913
1288280128217,1.19604
1288280188217,1.19365
1288280248217,1.19444
1288280308217,1.20324
1288280368217,1.18957
1288280428217,1.19339
1288280488217,1.20063
1288280548217,1.18594
1288280608217,1.21440
1288280668217,1.20255
1288280728217,1.19157
1288280788217,1.19662
1288280848217,1.20225
1288280908217,1.18115
1288280968217,1.19799
1288281028217,1.19474
1288281088217,1.20503
1288281148217,1.18882
1288281208217,1.20098
1288281268217,1.19058
1288281328217,1.19383
1288281388217,1.19779
1288281448217,1.19211
1288281508217,1.19438
1288281568217,1.19126
1288281628229,1.18946
1288281688229,1.20052
1288281748229,1.19513
1288281808229,1.19640
1288281868229,1.18920
1288281928229,1.19411
1288281988229,1.19768
1288282048229,1.18986
1288282108229,1.20954
1288282168229,1.19960
1288282228229,1.19343
1288282288229,1.18733
1288282348229,1.19132
1288282408229,1.19040
1288282468229,1.18968
1288282528229,1.20288
1288282588229,1.20049
1288282648229,1.19184
1288282708229,1.19797
1288282768229,1.19411
1288282828229,1.19287
1288282888229,1.19372
1288282948229,1.19316
1288283008229,1.17733
1288283068229,1.18986
1288283128229,1.19202
1288283188229,1.18944
1288283248229,1.19035
1288283308229,1.18976
1288283368229,1.19687
1288283428229,1.17623
1288283488229,1.18374
1288283548229,1.26822
1288283608229,1.19153
1288283668229,1.18581
1288283728229,1.18097
1288283788229,1.18443
1288283848229,1.20470
1288283908229,1.18783
1288283968229,1.18713
1288284028229,1.17701
1288284088229,1.19865
1288284148229,1.18343
1288284208229,1.18739
1288284268229,1.19242
1288284328229,1.17648
1288284388229,1.18179
1288284448229,1.19024
1288284508229,1.16319
1288284568229,1.17956
1288284628229,1.18133
1288284688229,1.18482
1288284748229,1.18713
1288284808229,1.17927
1288284868229,1.18128
1288284928229,1.18041
1288284988229,1.17110
1288285048229,1.17617
1288285108229,1.18728
1288285168229,1.17628
1288285228241,1.18238
1288285288241,1.17020
1288285348241,1.17785
1288285408241,1.17467
1288285468241,1.17407
1288285528241,1.17772
1288285588241,1.17869
1288285648241,1.17497
1288285708241,1.16323
1288285768241,1.16213
1288285828241,1.17029
1288285888241,1.17149
1288285948241,1.16630
1288286008241,1.18002
1288286068241,1.17952
1288286128241,1.16082
1288286188241,1.17681
1288286248241,1.16982
1288286308241,1.17824
1288286368241,1.17394
1288286428241,1.17060
1288286488241,1.17533
1288286548241,1.17588
1288286608241,1.16991
1288286668241,1.16119
1288286728241,1.16672
1288286788241,1.16310
1288286848241,1.16633
1288286908241,1.16408
1288286968241,1.17513
1288287028241,1.16815
1288287088241,1.16156
1288287148241,1.16805
1288287208241,1.17810
1288287268241,1.16658
1288287328241,1.17077
1288287388241,1.16839
1288287448241,1.16861
1288287508241,1.16333
1288287568241,1.16572
1288287628241,1.16389
1288287688241,1.16971
1288287748241,1.15874
1288287808241,1.17661
1288287868241,1.16292
1288287928241,1.16051
1288287988241,1.16556
1288288048241,1.17087
1288288108241,1.15932
1288288168241,1.15255
1288288228241,1.15796
1288288288241,1.15957
1288288348241,1.15663
1288288408241,1.16880
1288288468241,1.17119
1288288528241,1.16051
1288288588241,1.16465
1288288648241,1.15468
1288288708241,1.15879
1288288768241,1.16563
1288288828253,1.16262
1288288888253,1.16360
1288288948253,1.20752
1288289008253,1.15885
1288289068253,1.15801
1288289128253,1.16440
1288289188253,1.15894
1288289248253,1.16139
1288289308253,1.15810
1288289368253,1.15588